Location: Amsterdam
(30.7274°N, 84.4357°W)
Time: 19:10:04
(UTC+00:00)

Altair - Pass Details

Date: 09 August 2024
Orbit: 1501 x 1682 km, 47.2° (Epoch: 07 September)

Event Time Altitude Azimuth Distance (km) Brightness Sun altitude
Rises 16:47:29 0° 222° (SW) 4,911 10.2 70.2°
Reaches altitude 10° 16:50:40 10° 221° (SW) 3,913 9.8 70.7°
Maximum altitude 17:00:41 76° 137° (SE) 1,672 11.0 72.0°
Drops below altitude 10° 17:10:22 10° 53° (NE) 3,795 9.7 73.1°
Sets 17:13:24 0° 52° (NE) 4,757 10.0 73.4°
